�������l�o���
Date,Time,MP-1(��Sv/h),MP-2(��Sv/h),MP-3(��Sv/h),MP-4(��Sv/h),MP-5(��Sv/h),MP-6(��Sv/h),MP-7(��Sv/h),MP-8(��Sv/h),����,����(m/s),���J
2022/09/07,00:00,0.597,0.845,0.532,1.028,0.736,0.340,0.593,0.558,��,7.2,��
2022/09/07,00:10,0.598,0.847,0.533,1.031,0.736,0.341,0.593,0.556,��,6.7,��
2022/09/07,00:20,0.599,0.844,0.536,1.031,0.736,0.339,0.593,0.558,��,6.8,��
2022/09/07,00:30,0.599,0.845,0.533,1.030,0.737,0.340,0.593,0.558,��,7.2,��
2022/09/07,00:40,0.599,0.845,0.533,1.030,0.739,0.341,0.592,0.557,��,7.8,��
2022/09/07,00:50,0.598,0.845,0.533,1.031,0.738,0.339,0.593,0.558,��,7.6,��
2022/09/07,01:00,0.600,0.847,0.533,1.031,0.734,0.341,0.592,0.557,��,8.5,��
2022/09/07,01:10,0.598,0.844,0.532,1.032,0.737,0.340,0.593,0.558,��,8.3,��
2022/09/07,01:20,0.599,0.845,0.532,1.030,0.737,0.340,0.593,0.558,��,8.1,��
2022/09/07,01:30,0.599,0.844,0.534,1.029,0.736,0.341,0.593,0.558,��,7.3,��
2022/09/07,01:40,0.597,0.845,0.535,1.030,0.737,0.340,0.592,0.558,��,6.4,��
2022/09/07,01:50,0.598,0.846,0.532,1.030,0.738,0.341,0.594,0.559,��,5.2,��
2022/09/07,02:00,0.598,0.844,0.534,1.030,0.735,0.339,0.593,0.558,��,4.7,��
2022/09/07,02:10,0.598,0.846,0.535,1.030,0.738,0.340,0.592,0.558,��,4.6,��
2022/09/07,02:20,0.599,0.846,0.534,1.030,0.736,0.342,0.592,0.558,��,3.5,��
2022/09/07,02:30,0.600,0.846,0.534,1.031,0.736,0.341,0.593,0.559,��,4.1,��
2022/09/07,02:40,0.598,0.846,0.535,1.029,0.737,0.339,0.593,0.558,��,5.2,��
2022/09/07,02:50,0.598,0.844,0.535,1.030,0.737,0.340,0.591,0.558,��,5.4,��
2022/09/07,03:00,0.599,0.846,0.532,1.031,0.736,0.341,0.592,0.558,��,5.3,��
2022/09/07,03:10,0.598,0.846,0.534,1.029,0.737,0.341,0.592,0.558,��쐼,4.5,��
2022/09/07,03:20,0.601,0.845,0.534,1.032,0.735,0.340,0.593,0.558,��,4.0,��
2022/09/07,03:30,0.599,0.846,0.535,1.030,0.737,0.340,0.593,0.558,��,4.3,��
2022/09/07,03:40,0.597,0.847,0.535,1.031,0.738,0.341,0.592,0.557,��,4.1,��
2022/09/07,03:50,0.599,0.846,0.534,1.029,0.736,0.341,0.594,0.555,��,5.0,��
2022/09/07,04:00,0.599,0.848,0.535,1.033,0.739,0.342,0.594,0.558,��,5.7,��
2022/09/07,04:10,0.600,0.846,0.533,1.031,0.737,0.342,0.593,0.557,��,5.9,��
2022/09/07,04:20,0.599,0.845,0.535,1.032,0.739,0.342,0.593,0.559,��쐼,3.2,��
2022/09/07,04:30,0.600,0.846,0.534,1.030,0.737,0.342,0.594,0.557,��쐼,2.0,��
2022/09/07,04:40,0.600,0.847,0.535,1.031,0.738,0.342,0.594,0.557,��쐼,3.6,��
2022/09/07,04:50,0.600,0.846,0.536,1.031,0.739,0.342,0.591,0.558,��쐼,2.9,��
2022/09/07,05:00,0.600,0.846,0.535,1.032,0.738,0.342,0.594,0.558,��쐼,1.4,��
2022/09/07,05:10,0.601,0.849,0.532,1.032,0.737,0.343,0.594,0.559,��쐼,1.5,��
2022/09/07,05:20,0.601,0.847,0.535,1.031,0.738,0.342,0.593,0.558,-,CALM,��
2022/09/07,05:30,0.602,0.848,0.535,1.030,0.739,0.340,0.594,0.558,�k�k��,1.5,��
2022/09/07,05:40,0.601,0.848,0.535,1.031,0.739,0.341,0.593,0.560,�k�k��,2.0,��
2022/09/07,05:50,0.601,0.848,0.535,1.030,0.738,0.342,0.593,0.558,�k�k��,2.3,��
2022/09/07,06:00,0.601,0.848,0.537,1.032,0.738,0.341,0.594,0.558,�k,2.9,��
2022/09/07,06:10,0.602,0.847,0.537,1.033,0.739,0.341,0.593,0.559,�k,2.8,��
2022/09/07,06:20,0.601,0.848,0.535,1.033,0.739,0.343,0.594,0.558,�k,2.6,��
2022/09/07,06:30,0.599,0.846,0.534,1.032,0.740,0.342,0.596,0.559,�k�k��,2.3,��
2022/09/07,06:40,0.601,0.848,0.535,1.032,0.737,0.342,0.594,0.559,�k,2.9,��
2022/09/07,06:50,0.600,0.847,0.534,1.031,0.737,0.343,0.594,0.560,�k�k��,2.8,��
2022/09/07,07:00,0.600,0.847,0.534,1.030,0.738,0.342,0.595,0.557,�k�k��,2.2,��
2022/09/07,07:10,0.600,0.847,0.536,1.030,0.739,0.342,0.594,0.558,�k�k��,1.4,��
2022/09/07,07:20,0.600,0.846,0.532,1.033,0.737,0.341,0.594,0.557,�k,2.3,��
2022/09/07,07:30,0.600,0.846,0.534,1.029,0.736,0.341,0.595,0.558,�k,2.2,��
2022/09/07,07:40,0.602,0.848,0.534,1.028,0.740,0.340,0.593,0.557,�k�k��,1.7,��
2022/09/07,07:50,0.601,0.847,0.535,1.031,0.740,0.341,0.594,0.559,�k�k��,2.3,��
2022/09/07,08:00,0.601,0.846,0.534,1.030,0.738,0.341,0.592,0.559,�k�k��,1.5,��
2022/09/07,08:10,0.601,0.847,0.534,1.030,0.736,0.341,0.594,0.558,�k�k��,2.0,��
2022/09/07,08:20,0.600,0.844,0.534,1.030,0.737,0.339,0.595,0.558,�k,2.0,��
2022/09/07,08:30,0.599,0.846,0.535,1.031,0.738,0.341,0.595,0.556,�k�k��,2.9,��
2022/09/07,08:40,0.601,0.843,0.538,1.032,0.739,0.341,0.594,0.558,�k�k��,2.3,��
2022/09/07,08:50,0.600,0.844,0.536,1.030,0.737,0.341,0.594,0.558,�k�k��,3.9,��
2022/09/07,09:00,0.601,0.845,0.535,1.030,0.736,0.341,0.593,0.557,�k�k��,4.0,��
2022/09/07,09:10,0.601,0.845,0.534,1.031,0.736,0.340,0.592,0.559,�k�k��,4.9,��
2022/09/07,09:20,0.601,0.843,0.534,1.030,0.737,0.340,0.595,0.558,�k�k��,4.7,��
2022/09/07,09:30,0.600,0.845,0.533,1.030,0.738,0.341,0.594,0.558,�k�k��,4.6,�L
2022/09/07,09:40,0.600,0.844,0.533,1.030,0.737,0.340,0.595,0.559,�k�k��,5.6,�L
2022/09/07,09:50,0.600,0.845,0.536,1.030,0.738,0.342,0.596,0.558,�k�k��,5.0,�L
2022/09/07,10:00,0.601,0.845,0.535,1.031,0.738,0.341,0.595,0.559,�k�k��,5.1,��
2022/09/07,10:10,0.601,0.844,0.535,1.031,0.738,0.340,0.594,0.558,�k�k��,5.2,�L
2022/09/07,10:20,0.601,0.846,0.536,1.032,0.739,0.340,0.595,0.559,�k�k��,5.7,�L
2022/09/07,10:30,0.599,0.846,0.536,1.032,0.739,0.339,0.594,0.559,�k,4.8,�L
2022/09/07,10:40,0.600,0.846,0.535,1.031,0.739,0.341,0.594,0.558,�k,4.5,�L
2022/09/07,10:50,0.600,0.844,0.536,1.032,0.735,0.341,0.595,0.558,�k,4.3,�L
2022/09/07,11:00,0.601,0.845,0.533,1.031,0.737,0.342,0.595,0.556,�k,3.9,�L
2022/09/07,11:10,0.600,0.846,0.536,1.031,0.738,0.341,0.594,0.557,�k,4.8,�L
2022/09/07,11:20,0.601,0.847,0.535,1.033,0.736,0.342,0.595,0.558,�k,5.7,�L
2022/09/07,11:30,0.602,0.845,0.534,1.032,0.737,0.340,0.594,0.558,�k,4.8,�L
2022/09/07,11:40,0.601,0.848,0.535,1.033,0.737,0.342,0.594,0.558,�k,4.4,�L
2022/09/07,11:50,0.603,0.846,0.535,1.032,0.738,0.342,0.596,0.559,�k,4.3,�L
2022/09/07,12:00,0.600,0.845,0.536,1.032,0.736,0.342,0.595,0.557,�k�k��,3.8,�L
2022/09/07,12:10,0.600,0.845,0.534,1.032,0.739,0.341,0.592,0.557,�k�k��,4.3,�L
2022/09/07,12:20,0.600,0.844,0.534,1.033,0.739,0.341,0.593,0.557,�k�k��,4.4,�L
2022/09/07,12:30,0.599,0.846,0.536,1.033,0.737,0.341,0.592,0.556,�k�k��,3.4,�L
2022/09/07,12:40,0.597,0.844,0.535,1.031,0.735,0.342,0.593,0.556,�k�k��,3.6,�L
2022/09/07,12:50,0.598,0.845,0.534,1.033,0.739,0.340,0.593,0.558,�k�k��,3.6,��
2022/09/07,13:00,0.597,0.846,0.536,1.034,0.738,0.341,0.592,0.557,�k�k��,3.3,��
2022/09/07,13:10,0.598,0.845,0.534,1.033,0.739,0.340,0.593,0.556,�k,2.6,��
2022/09/07,13:20,0.599,0.844,0.534,1.033,0.738,0.340,0.591,0.556,�k,2.8,��
2022/09/07,13:30,0.597,0.847,0.534,1.032,0.736,0.341,0.594,0.557,�k�k��,2.3,��
2022/09/07,13:40,0.598,0.843,0.535,1.033,0.738,0.340,0.592,0.555,�k,2.2,��
2022/09/07,13:50,0.595,0.845,0.535,1.033,0.738,0.340,0.593,0.555,�k�k��,2.2,��
2022/09/07,14:00,0.594,0.843,0.535,1.033,0.737,0.340,0.592,0.554,�k�k��,1.5,��
2022/09/07,14:10,0.596,0.842,0.532,1.033,0.736,0.340,0.590,0.555,�k�k��,1.9,��
2022/09/07,14:20,0.594,0.847,0.533,1.032,0.738,0.339,0.592,0.553,�k��,1.2,��
2022/09/07,14:30,0.595,0.844,0.534,1.031,0.737,0.339,0.592,0.555,�k��,0.9,��
2022/09/07,14:40,0.595,0.844,0.534,1.032,0.738,0.340,0.592,0.553,�k��,1.2,��
2022/09/07,14:50,0.599,0.845,0.536,1.032,0.738,0.340,0.592,0.553,�k��,2.0,��
2022/09/07,15:00,0.592,0.845,0.533,1.032,0.739,0.340,0.592,0.555,�k�k��,2.3,��
2022/09/07,15:10,0.595,0.845,0.534,1.032,0.740,0.341,0.593,0.555,�k�k��,2.3,��
2022/09/07,15:20,0.594,0.843,0.534,1.032,0.737,0.340,0.594,0.554,�k,3.1,��
2022/09/07,15:30,0.592,0.845,0.533,1.032,0.739,0.339,0.592,0.554,�k�k��,2.8,��
2022/09/07,15:40,0.592,0.844,0.534,1.032,0.739,0.339,0.591,0.553,�k�k��,2.8,��
2022/09/07,15:50,0.594,0.846,0.534,1.033,0.739,0.341,0.593,0.556,�k,3.7,��
2022/09/07,16:00,0.596,0.847,0.534,1.034,0.740,0.341,0.594,0.554,�k,3.5,��
2022/09/07,16:10,0.599,0.846,0.535,1.035,0.738,0.342,0.594,0.556,�k,3.7,��
2022/09/07,16:20,0.597,0.846,0.534,1.032,0.738,0.341,0.594,0.556,�k,2.9,��
2022/09/07,16:30,0.596,0.845,0.534,1.033,0.738,0.341,0.593,0.556,�k,3.2,��
2022/09/07,16:40,0.598,0.847,0.533,1.033,0.737,0.340,0.594,0.557,�k,2.9,��
2022/09/07,16:50,0.597,0.846,0.533,1.034,0.738,0.342,0.594,0.555,�k,2.5,��
2022/09/07,17:00,0.596,0.846,0.535,1.031,0.739,0.340,0.594,0.557,�k,2.6,��
2022/09/07,17:10,0.596,0.847,0.535,1.033,0.737,0.342,0.594,0.556,�k,3.5,��
2022/09/07,17:20,0.596,0.848,0.535,1.033,0.736,0.341,0.594,0.558,�k,3.9,��
2022/09/07,17:30,0.597,0.846,0.534,1.033,0.737,0.341,0.595,0.555,�k,4.0,��
2022/09/07,17:40,0.596,0.848,0.534,1.033,0.740,0.340,0.594,0.556,�k,3.8,�L
2022/09/07,17:50,0.595,0.849,0.532,1.032,0.738,0.339,0.593,0.557,�k,4.0,�L
2022/09/07,18:00,0.597,0.848,0.534,1.034,0.737,0.340,0.593,0.556,�k,4.0,�L
2022/09/07,18:10,0.596,0.850,0.534,1.033,0.739,0.341,0.593,0.557,�k�k��,4.3,�L
2022/09/07,18:20,0.597,0.846,0.534,1.035,0.738,0.340,0.595,0.558,�k�k��,3.9,�L
2022/09/07,18:30,0.594,0.845,0.534,1.035,0.739,0.340,0.593,0.558,�k�k��,3.0,�L
2022/09/07,18:40,0.598,0.846,0.535,1.033,0.738,0.340,0.592,0.557,�k�k��,3.6,�L
2022/09/07,18:50,0.596,0.845,0.534,1.034,0.738,0.342,0.593,0.558,�k,4.7,�L
2022/09/07,19:00,0.594,0.845,0.534,1.033,0.735,0.341,0.592,0.558,�k,5.2,�L
2022/09/07,19:10,0.593,0.842,0.533,1.033,0.737,0.341,0.592,0.557,�k�k��,5.3,�L
2022/09/07,19:20,0.593,0.843,0.534,1.033,0.736,0.341,0.591,0.557,�k,4.4,�L
2022/09/07,19:30,0.591,0.842,0.534,1.033,0.734,0.341,0.591,0.557,�k�k��,3.3,�L
2022/09/07,19:40,0.591,0.840,0.530,1.034,0.735,0.340,0.593,0.558,�k�k��,2.9,�L
2022/09/07,19:50,0.591,0.840,0.530,1.030,0.734,0.340,0.591,0.557,�k�k��,3.1,�L
2022/09/07,20:00,0.592,0.839,0.529,1.033,0.733,0.339,0.591,0.556,�k�k��,2.9,�L
2022/09/07,20:10,0.591,0.837,0.530,1.031,0.730,0.339,0.590,0.556,�k,3.2,�L
2022/09/07,20:20,0.589,0.833,0.528,1.028,0.728,0.340,0.589,0.554,�k,2.6,�L
2022/09/07,20:30,0.590,0.832,0.529,1.026,0.724,0.339,0.587,0.554,�k,4.7,�L
2022/09/07,20:40,0.588,0.829,0.528,1.021,0.724,0.340,0.587,0.555,�k,5.4,�L
2022/09/07,20:50,0.586,0.830,0.527,1.020,0.724,0.338,0.586,0.554,�k,6.3,�L
2022/09/07,21:00,0.586,0.828,0.525,1.019,0.724,0.339,0.586,0.554,�k,6.3,�L
2022/09/07,21:10,0.587,0.826,0.526,1.019,0.723,0.338,0.585,0.551,�k,6.0,�L
2022/09/07,21:20,0.586,0.826,0.525,1.017,0.722,0.339,0.585,0.552,�k,5.1,�L
2022/09/07,21:30,0.585,0.825,0.525,1.016,0.722,0.338,0.584,0.551,�k,4.4,�L
2022/09/07,21:40,0.585,0.823,0.524,1.016,0.724,0.339,0.586,0.549,�k,4.9,�L
2022/09/07,21:50,0.585,0.825,0.524,1.014,0.721,0.338,0.586,0.551,�k,5.0,�L
2022/09/07,22:00,0.584,0.827,0.523,1.015,0.721,0.337,0.586,0.551,�k,4.7,�L
2022/09/07,22:10,0.585,0.825,0.523,1.016,0.724,0.338,0.585,0.552,�k,4.5,�L
2022/09/07,22:20,0.586,0.826,0.524,1.016,0.721,0.336,0.585,0.549,�k,5.2,�L
2022/09/07,22:30,0.583,0.827,0.522,1.012,0.720,0.337,0.585,0.550,�k,4.8,�L
2022/09/07,22:40,0.583,0.823,0.523,1.015,0.720,0.337,0.585,0.550,�k�k��,4.9,�L
2022/09/07,22:50,0.583,0.823,0.522,1.014,0.718,0.338,0.584,0.552,�k,5.6,�L
2022/09/07,23:00,0.582,0.823,0.523,1.013,0.720,0.337,0.585,0.551,�k,5.5,�L
2022/09/07,23:10,0.582,0.824,0.521,1.014,0.718,0.338,0.585,0.552,�k,4.4,�L
2022/09/07,23:20,0.582,0.820,0.520,1.011,0.718,0.337,0.584,0.548,�k,4.7,�L
2022/09/07,23:30,0.581,0.819,0.522,1.009,0.716,0.337,0.584,0.549,�k,5.0,�L
2022/09/07,23:40,0.581,0.816,0.522,1.007,0.716,0.336,0.582,0.548,�k,5.2,�L
2022/09/07,23:50,0.582,0.818,0.520,1.007,0.715,0.337,0.580,0.549,�k,5.2,�L
